Kodiak, AK

12:39 AM AKDT on August 24, 2017 (GMT -0800)
Kodiak

Weather History for PADQ - October, 2012

Change the Weather History Date:

Tuesday, October 9, 2012

  Actual Average Record
Temperature  
Mean Temperature 42 °F 42 °F  
Max Temperature 45 °F 48 °F 60 °F (1926)
Min Temperature 38 °F 36 °F 22 °F (2007)
Degree Days  
Heating Degree Days 23 23  
Month to date heating degree days 165 194  
Since 1 July heating degree days 1395 1295  
Cooling Degree Days 0 0  
Month to date cooling degree days 0 0  
Year to date cooling degree days 0 1  
Moisture  
Dew Point 41 °F    
Average Humidity 0    
Maximum Humidity 0    
Minimum Humidity 0    
Precipitation  
Precipitation 0.00 in 0.28 in 6.40 in (2009)
Month to date precipitation 2.33 2.52  
Year to date precipitation 45.38 56.66  
Snow  
Snow 0.00 in 0.10 in - ()
Month to date snowfall 0.0 0.1  
Since 1 July snowfall T 0.1  
Since 1 September snowfall 0.0 0.1  
Snow Depth 0.00 in    
Sea Level Pressure  
Sea Level Pressure 30.14 in    
Wind  
Wind Speed 1 mph (WNW)    
Max Wind Speed 3 mph    
Max Gust Speed 5 mph    
Visibility 2 miles    
Events Fog    
T = Trace of Precipitation, MM = Missing Value Source: NWS Daily Summary

Daily Weather History Graph

Daily Weather History Graph

Search for Another Location

Airport or City:

Trip Planner

Search our weather history database for the weather conditions in past years. The results will help you decide how hot, cold, wet, or windy it might be!

Date:

Astronomy

Oct. 09, 2012 Rise Set
Actual Time 8:32 AM AKDT 7:19 PM AKDT
Civil Twilight 7:53 AM AKDT 7:58 PM AKDT
Nautical Twilight 7:08 AM AKDT 8:43 PM AKDT
Astronomical Twilight 6:22 AM AKDT 9:29 PM AKDT
Moon 1:07 AM AKDT (10/9) 4:57 PM AKDT (10/9)
Length of Visible Light 12h 05m
Length of Day
10h 47m
Waning Crescent, 35% of the Moon is Illuminated
Oct 9
Waning Crescent
Oct 15
New
Oct 21
First Quarter
Oct 29
Full
Nov 6
Last Quarter

Hourly Weather History & Observations

Time (AKDT) Temp. Windchill Dew Point Humidity Pressure Visibility Wind Dir Wind Speed Gust Speed Precip Events Conditions
12:53 AM 45.0 °F - 44.1 °F 97% 30.17 in 5.0 mi Calm Calm - N/A   Overcast
1:53 AM 44.1 °F 41.5 °F 43.0 °F 96% 30.17 in 7.0 mi West 4.6 mph - N/A   Overcast
2:53 AM 44.1 °F 42.5 °F 44.1 °F 100% 30.17 in 2.5 mi NW 3.5 mph - N/A   Overcast
3:24 AM 42.8 °F 40.1 °F 42.8 °F 100% 30.17 in 4.0 mi NW 4.6 mph - N/A   Overcast
3:48 AM 42.8 °F - 42.8 °F 100% 30.17 in 2.5 mi Calm Calm - N/A   Overcast
3:53 AM 42.1 °F - 42.1 °F 100% 30.17 in 3.0 mi Calm Calm - N/A   Overcast
4:18 AM 41.0 °F 39.0 °F 41.0 °F 100% 30.16 in 6.0 mi WNW 3.5 mph - N/A   Overcast
4:29 AM 41.0 °F - 41.0 °F 100% 30.16 in 3.0 mi Calm Calm - N/A   Overcast
4:37 AM 41.0 °F - 41.0 °F 100% 30.16 in 1.8 mi Calm Calm - N/A   Overcast
4:53 AM 41.0 °F - 39.9 °F 96% 30.17 in 3.0 mi Calm Calm - N/A   Overcast
5:19 AM 41.0 °F - 41.0 °F 100% 30.16 in 2.5 mi Calm Calm - N/A   Overcast
5:26 AM 41.0 °F 39.0 °F 41.0 °F 100% 30.16 in 3.0 mi WNW 3.5 mph - N/A   Overcast
5:35 AM 41.0 °F - 41.0 °F 100% 30.16 in 2.0 mi Calm Calm - N/A   Overcast
5:53 AM 41.0 °F 38.0 °F 41.0 °F 100% 30.15 in 5.0 mi West 4.6 mph - N/A   Overcast
6:13 AM 41.0 °F 39.0 °F 39.2 °F 93% 30.15 in 1.5 mi WNW 3.5 mph - N/A   Overcast
6:22 AM 41.0 °F - 41.0 °F 100% 30.15 in 1.0 mi Calm Calm - N/A   Mist
6:53 AM 39.9 °F 37.8 °F 39.9 °F 100% 30.14 in 1.0 mi West 3.5 mph - N/A   Overcast
7:18 AM 39.2 °F 37.0 °F 39.2 °F 100% 30.14 in 1.5 mi WNW 3.5 mph - N/A   Overcast
7:40 AM 39.2 °F - 39.2 °F 100% 30.14 in 0.5 mi Calm Calm - N/A   Mostly Cloudy
7:53 AM 39.9 °F - 39.9 °F 100% 30.14 in 0.5 mi Calm Calm - N/A   Mostly Cloudy
8:13 AM 39.2 °F - 39.2 °F 100% 30.14 in 0.5 mi Calm Calm - N/A Fog Fog
8:53 AM 39.0 °F - 39.0 °F 100% 30.14 in 0.2 mi Calm Calm - N/A Fog Fog
9:53 AM 39.9 °F - 39.9 °F 100% 30.15 in 0.5 mi Calm Calm - N/A Fog Fog
10:53 AM 39.9 °F - 39.9 °F 100% 30.16 in 0.2 mi Calm Calm - N/A Fog Fog
11:53 AM 41.0 °F - 41.0 °F 100% 30.16 in 0.2 mi Calm Calm - N/A Fog Fog
12:53 PM 42.1 °F 40.2 °F 41.0 °F 96% 30.16 in 0.5 mi NE 3.5 mph - N/A Fog Fog
1:16 PM 42.8 °F - 42.8 °F 100% 30.15 in 1.0 mi Calm Calm - N/A   Overcast
1:53 PM 42.1 °F - 42.1 °F 100% 30.15 in 1.0 mi Calm Calm - N/A   Overcast
2:50 PM 44.6 °F - 44.6 °F 100% 30.14 in 0.5 mi Calm Calm - N/A Fog Fog
2:53 PM 44.1 °F 41.5 °F 44.1 °F 100% 30.14 in 0.5 mi East 4.6 mph - N/A Fog Fog
3:53 PM 44.1 °F 42.5 °F 44.1 °F 100% 30.13 in 0.5 mi East 3.5 mph - N/A Fog Fog
4:53 PM 44.1 °F - 43.0 °F 96% 30.11 in 0.5 mi Calm Calm - N/A Fog Fog
5:13 PM 42.8 °F - 42.8 °F 100% 30.11 in 0.2 mi Calm Calm - N/A Fog Fog
5:53 PM 43.0 °F - 43.0 °F 100% 30.11 in 0.2 mi Calm Calm - N/A Fog Fog
6:53 PM 42.1 °F - 42.1 °F 100% 30.10 in 0.2 mi Calm Calm - N/A Fog Fog
7:53 PM 42.1 °F - 42.1 °F 100% 30.09 in 0.2 mi Calm Calm - N/A Fog Fog
8:53 PM 41.0 °F - 41.0 °F 100% 30.09 in 0.2 mi Calm Calm - N/A Fog Fog
9:53 PM 41.0 °F - 41.0 °F 100% 30.09 in 0.2 mi Calm Calm - N/A Fog Fog
10:53 PM 39.9 °F - 39.9 °F 100% 30.10 in 0.2 mi Calm Calm - N/A Fog Fog
11:53 PM 39.0 °F - 39.0 °F 100% 30.08 in 0.2 mi Calm Calm - N/A Fog Fog